ABW1205 UHPP-UHHH

Flight info

Callsign ABW1205
Flight time 2h 21m
Altitude 40000
Route SAMIK4M SAMIK T577 UB P176 FI N222 TOMSU TOMSU6G
Aircraft B77L/H-SDE1E2E3FGHIJ2J3J4J5M1RWXY/LB1D1

Departure

Time 2026-04-21 01:47
Airport Yelizovo Airport (UHPP)

Arrival

Time 2026-04-21 04:08
Airport Khabarovsk Novy Airport (UHHH)
Time Latitude Longitude Altitude Speed Heading
2026-04-21 01:22 53.16973 158.42901 141 ft 0 kts
2026-04-21 01:42 53.16983 158.42903 141 ft 8 kts
2026-04-21 01:42 53.17102 158.43007 141 ft 25 kts 56°
2026-04-21 01:42 53.17189 158.43262 141 ft 25 kts 60°
2026-04-21 01:43 53.17268 158.43492 141 ft 22 kts 60°
2026-04-21 01:43 53.17345 158.43716 141 ft 22 kts 59°
2026-04-21 01:43 53.17423 158.43939 141 ft 22 kts 60°
2026-04-21 01:43 53.17491 158.44170 141 ft 22 kts 69°
2026-04-21 01:44 53.17542 158.44377 142 ft 15 kts 67°
2026-04-21 01:44 53.17546 158.44396 142 ft 1 kts 67°
2026-04-21 01:44 53.17593 158.44550 143 ft 26 kts 47°
2026-04-21 01:44 53.17756 158.44506 141 ft 26 kts 335°
2026-04-21 01:45 53.17908 158.44399 140 ft 22 kts 338°
2026-04-21 01:45 53.18048 158.44304 140 ft 22 kts 338°
2026-04-21 01:45 53.18187 158.44210 141 ft 22 kts 338°
2026-04-21 01:45 53.18312 158.44114 142 ft 12 kts 306°
2026-04-21 01:46 53.18274 158.44072 142 ft 9 kts 128°
2026-04-21 01:46 53.18236 158.44166 142 ft 10 kts 148°
2026-04-21 01:46 53.18208 158.44185 141 ft 18 kts 158°
2026-04-21 01:46 53.17691 158.44543 143 ft 144 kts 158°
2026-04-21 01:47 53.16517 158.45344 751 ft 192 kts 158°
2026-04-21 01:47 53.15330 158.46117 2532 ft 174 kts 159°
2026-04-21 01:47 53.14210 158.46828 4330 ft 171 kts 156°
2026-04-21 01:47 53.13113 158.47583 6058 ft 171 kts 155°
2026-04-21 01:48 53.11922 158.48451 6946 ft 202 kts 154°
2026-04-21 01:48 53.10521 158.49475 7240 ft 238 kts 155°
2026-04-21 01:48 53.08896 158.50632 7784 ft 264 kts 156°
2026-04-21 01:48 53.07171 158.51837 8751 ft 274 kts 156°
2026-04-21 01:49 53.05390 158.53066 9777 ft 280 kts 156°
2026-04-21 01:49 53.03561 158.54317 10743 ft 291 kts 156°
2026-04-21 01:49 53.01593 158.55663 11169 ft 323 kts 156°
2026-04-21 01:49 52.99399 158.57003 11492 ft 347 kts 166°
2026-04-21 01:50 52.96945 158.57132 12354 ft 361 kts 188°
2026-04-21 01:50 52.94561 158.55753 13404 ft 367 kts 211°
2026-04-21 01:50 52.92614 158.53026 14467 ft 370 kts 233°
2026-04-21 01:50 52.91370 158.49296 15492 ft 372 kts 252°
2026-04-21 01:51 52.90847 158.45099 16435 ft 374 kts 266°
2026-04-21 01:51 52.90625 158.40774 17355 ft 380 kts 269°
2026-04-21 01:51 52.90476 158.36381 18273 ft 385 kts 270°
2026-04-21 01:51 52.90343 158.31942 19001 ft 389 kts 270°
2026-04-21 01:52 52.90201 158.27443 19134 ft 393 kts 270°
2026-04-21 01:52 52.89871 158.18433 19129 ft 391 kts 269°
2026-04-21 01:52 52.89687 158.13947 19136 ft 390 kts 269°
2026-04-21 01:53 52.89496 158.09460 19139 ft 391 kts 269°
2026-04-21 01:53 52.89300 158.04972 19131 ft 391 kts 269°
2026-04-21 01:53 52.89099 158.00455 19745 ft 395 kts 269°
2026-04-21 01:53 52.88893 157.95909 20721 ft 397 kts 269°
2026-04-21 01:54 52.88685 157.91344 21684 ft 399 kts 269°
2026-04-21 01:54 52.88475 157.86739 22519 ft 403 kts 270°
2026-04-21 01:54 52.88260 157.82074 23262 ft 410 kts 270°
2026-04-21 01:54 52.88040 157.77411 24021 ft 414 kts 270°
2026-04-21 01:55 52.87815 157.72647 24857 ft 417 kts 270°
2026-04-21 01:55 52.87587 157.67846 25628 ft 420 kts 271°
2026-04-21 01:55 52.87355 157.63005 26368 ft 424 kts 271°
2026-04-21 01:55 52.87117 157.58119 27113 ft 427 kts 271°
2026-04-21 01:56 52.86877 157.53194 27804 ft 431 kts 271°
2026-04-21 01:56 52.86632 157.48234 28468 ft 435 kts 271°
2026-04-21 01:56 52.86383 157.43224 29126 ft 438 kts 271°
2026-04-21 01:56 52.86131 157.38179 29761 ft 441 kts 271°
2026-04-21 01:57 52.85874 157.33103 30380 ft 444 kts 271°
2026-04-21 01:57 52.85614 157.27987 30896 ft 449 kts 271°
2026-04-21 01:57 52.85349 157.22818 31351 ft 453 kts 271°
2026-04-21 01:57 52.85078 157.17597 31785 ft 457 kts 271°
2026-04-21 01:58 52.84802 157.12338 32240 ft 460 kts 270°
2026-04-21 01:58 52.84523 157.07073 32809 ft 459 kts 270°
2026-04-21 01:58 52.84241 157.01819 33425 ft 458 kts 270°
2026-04-21 01:58 52.83959 156.96581 33999 ft 457 kts 270°
2026-04-21 01:59 52.83675 156.91357 34552 ft 456 kts 269°
2026-04-21 01:59 52.83389 156.86142 35063 ft 455 kts 269°
2026-04-21 01:59 52.83102 156.80933 35552 ft 455 kts 269°
2026-04-21 01:59 52.82814 156.75722 36028 ft 455 kts 269°
2026-04-21 02:00 52.82524 156.70514 36459 ft 455 kts 269°
2026-04-21 02:00 52.82231 156.65307 36875 ft 455 kts 269°
2026-04-21 02:00 52.81936 156.60114 37383 ft 452 kts 269°
2026-04-21 02:00 52.81640 156.54963 37965 ft 447 kts 269°
2026-04-21 02:01 52.81344 156.49866 38466 ft 445 kts 268°
2026-04-21 02:01 52.81049 156.44768 38760 ft 446 kts 268°
2026-04-21 02:01 52.80751 156.39653 39044 ft 448 kts 268°
2026-04-21 02:01 52.80448 156.34525 39321 ft 449 kts 268°
2026-04-21 02:02 52.80144 156.29386 39610 ft 450 kts 268°
2026-04-21 02:02 52.79836 156.24232 39866 ft 451 kts 268°
2026-04-21 02:02 52.79524 156.19065 40046 ft 454 kts 268°
2026-04-21 02:03 52.78888 156.08623 40128 ft 457 kts 267°
2026-04-21 02:03 52.78244 155.98241 40119 ft 451 kts 267°
2026-04-21 02:04 52.77603 155.87999 40127 ft 446 kts 267°
2026-04-21 02:04 52.76949 155.77919 40126 ft 444 kts 265°
2026-04-21 02:05 52.75982 155.67851 40131 ft 444 kts 264°
2026-04-21 02:05 52.74937 155.57785 40134 ft 446 kts 263°
2026-04-21 02:06 52.73893 155.47684 40130 ft 448 kts 263°
2026-04-21 02:06 52.72847 155.37526 40122 ft 450 kts 263°
2026-04-21 02:07 52.71792 155.27325 40123 ft 452 kts 263°
2026-04-21 02:07 52.70725 155.17101 40121 ft 453 kts 263°
2026-04-21 02:08 52.69646 155.06857 40121 ft 454 kts 263°
2026-04-21 02:08 52.68559 154.96623 40119 ft 453 kts 263°
2026-04-21 02:09 52.67463 154.86400 40117 ft 452 kts 263°
2026-04-21 02:09 52.66362 154.76208 40107 ft 451 kts 263°
2026-04-21 02:10 52.65255 154.66045 40100 ft 450 kts 263°
2026-04-21 02:10 52.64145 154.55922 40100 ft 449 kts 263°
2026-04-21 02:11 52.63022 154.45837 40103 ft 447 kts 262°
2026-04-21 02:11 52.61886 154.35791 40100 ft 446 kts 262°
2026-04-21 02:12 52.60745 154.25775 40102 ft 445 kts 262°
2026-04-21 02:12 52.59606 154.15844 40095 ft 445 kts 262°
2026-04-21 02:13 52.58446 154.05793 40092 ft 444 kts 262°
2026-04-21 02:13 52.57294 153.95887 40094 ft 444 kts 262°
2026-04-21 02:14 52.56125 153.85917 40091 ft 444 kts 262°
2026-04-21 02:14 52.55139 153.77565 40084 ft 444 kts 262°
2026-04-21 02:15 52.53954 153.67598 40084 ft 445 kts 262°
2026-04-21 02:15 52.52768 153.57704 40083 ft 445 kts 262°
2026-04-21 02:16 52.51566 153.47741 40084 ft 445 kts 262°
2026-04-21 02:16 52.50355 153.37786 40075 ft 445 kts 261°
2026-04-21 02:17 52.49135 153.27833 40079 ft 445 kts 261°
2026-04-21 02:17 52.47907 153.17881 40078 ft 445 kts 261°
2026-04-21 02:18 52.46670 153.07935 40077 ft 445 kts 261°
2026-04-21 02:18 52.45426 152.97998 40057 ft 445 kts 261°
2026-04-21 02:19 52.44173 152.88069 40075 ft 445 kts 261°
2026-04-21 02:19 52.42913 152.78151 40073 ft 444 kts 261°
2026-04-21 02:20 52.41644 152.68240 40061 ft 444 kts 261°
2026-04-21 02:20 52.40369 152.58344 40057 ft 444 kts 261°
2026-04-21 02:21 52.39086 152.48459 40058 ft 443 kts 261°
2026-04-21 02:21 52.37794 152.38589 40055 ft 443 kts 261°
2026-04-21 02:22 52.36497 152.28732 40039 ft 443 kts 261°
2026-04-21 02:22 52.35197 152.18900 40055 ft 442 kts 261°
2026-04-21 02:23 52.33887 152.09081 40038 ft 442 kts 260°
2026-04-21 02:23 52.32563 151.99263 40034 ft 442 kts 260°
2026-04-21 02:24 52.31239 151.89445 40035 ft 442 kts 260°
2026-04-21 02:24 52.29904 151.79639 40032 ft 442 kts 260°
2026-04-21 02:25 52.28563 151.69842 40029 ft 442 kts 260°
2026-04-21 02:25 52.27212 151.60055 40029 ft 442 kts 260°
2026-04-21 02:26 52.25854 151.50271 40017 ft 442 kts 260°
2026-04-21 02:26 52.24486 151.40480 40021 ft 442 kts 260°
2026-04-21 02:27 52.23128 151.30692 40011 ft 442 kts 260°
2026-04-21 02:27 52.21815 151.20886 40010 ft 442 kts 260°
2026-04-21 02:28 52.20498 151.11085 40010 ft 442 kts 260°
2026-04-21 02:28 52.19171 151.01292 39997 ft 443 kts 260°
2026-04-21 02:29 52.17833 150.91501 39999 ft 443 kts 259°
2026-04-21 02:29 52.16484 150.81722 39996 ft 442 kts 259°
2026-04-21 02:30 52.15139 150.72021 39988 ft 442 kts 259°
2026-04-21 02:30 52.13775 150.62250 39944 ft 443 kts 259°
2026-04-21 02:31 52.12391 150.52411 39859 ft 443 kts 259°
2026-04-21 02:31 52.11015 150.42720 39831 ft 442 kts 259°
2026-04-21 02:32 52.09631 150.32991 39811 ft 441 kts 259°
2026-04-21 02:32 52.08241 150.23284 39808 ft 440 kts 259°
2026-04-21 02:33 52.06848 150.13617 39811 ft 439 kts 259°
2026-04-21 02:33 52.05450 150.03975 39805 ft 438 kts 259°
2026-04-21 02:34 52.04019 149.94359 39806 ft 438 kts 258°
2026-04-21 02:34 52.02519 149.84779 39800 ft 437 kts 258°
2026-04-21 02:35 52.01013 149.75221 39797 ft 438 kts 258°
2026-04-21 02:35 51.99500 149.65644 39778 ft 439 kts 258°
2026-04-21 02:36 51.97978 149.56031 39748 ft 440 kts 258°
2026-04-21 02:36 51.96447 149.46408 39741 ft 441 kts 257°
2026-04-21 02:37 51.94906 149.36808 39739 ft 440 kts 257°
2026-04-21 02:37 51.93365 149.27224 39726 ft 439 kts 257°
2026-04-21 02:38 51.91822 149.17680 39729 ft 437 kts 257°
2026-04-21 02:38 51.90271 149.08157 39723 ft 437 kts 257°
2026-04-21 02:39 51.88711 148.98650 39720 ft 437 kts 257°
2026-04-21 02:39 51.87147 148.89158 39721 ft 436 kts 256°
2026-04-21 02:40 51.85573 148.79657 39710 ft 437 kts 256°
2026-04-21 02:40 51.83994 148.70177 39713 ft 436 kts 256°
2026-04-21 02:41 51.82408 148.60706 39703 ft 436 kts 256°
2026-04-21 02:41 51.80815 148.51241 39704 ft 437 kts 256°
2026-04-21 02:42 51.79211 148.41763 39702 ft 438 kts 256°
2026-04-21 02:42 51.77604 148.32335 39692 ft 439 kts 255°
2026-04-21 02:43 51.75982 148.22824 39686 ft 439 kts 255°
2026-04-21 02:43 51.74342 148.13317 39691 ft 439 kts 255°
2026-04-21 02:44 51.72687 148.03756 39678 ft 440 kts 255°
2026-04-21 02:44 51.71049 147.94333 39689 ft 439 kts 255°
2026-04-21 02:45 51.69390 147.84848 39679 ft 440 kts 255°
2026-04-21 02:45 51.67722 147.75364 39676 ft 440 kts 255°
2026-04-21 02:46 51.66049 147.65887 39673 ft 440 kts 255°
2026-04-21 02:46 51.64369 147.56418 39668 ft 439 kts 255°
2026-04-21 02:47 51.62682 147.46973 39666 ft 439 kts 254°
2026-04-21 02:47 51.60985 147.37546 39657 ft 439 kts 254°
2026-04-21 02:48 51.59284 147.28122 39658 ft 439 kts 254°
2026-04-21 02:48 51.57579 147.18718 39657 ft 438 kts 254°
2026-04-21 02:49 51.55866 147.09323 39647 ft 438 kts 254°
2026-04-21 02:49 51.54147 146.99942 39652 ft 438 kts 254°
2026-04-21 02:50 51.52417 146.90562 39645 ft 438 kts 253°
2026-04-21 02:50 51.50684 146.81188 39633 ft 438 kts 253°
2026-04-21 02:51 51.48942 146.71832 39641 ft 438 kts 253°
2026-04-21 02:51 51.47193 146.62464 39636 ft 439 kts 253°
2026-04-21 02:52 51.45442 146.53157 39627 ft 439 kts 253°
2026-04-21 02:52 51.43670 146.43774 39626 ft 440 kts 253°
2026-04-21 02:53 51.41885 146.34386 39628 ft 441 kts 253°
2026-04-21 02:53 51.40064 146.25013 39620 ft 441 kts 252°
2026-04-21 02:54 51.38231 146.15642 39619 ft 441 kts 252°
2026-04-21 02:54 51.36393 146.06274 39619 ft 441 kts 252°
2026-04-21 02:55 51.34551 145.96913 39612 ft 441 kts 252°
2026-04-21 02:55 51.32702 145.87559 39611 ft 441 kts 252°
2026-04-21 02:56 51.30844 145.78204 39607 ft 441 kts 252°
2026-04-21 02:56 51.28041 145.64188 39599 ft 442 kts 252°
2026-04-21 02:57 51.26162 145.54846 39602 ft 442 kts 251°
2026-04-21 02:57 51.24277 145.45513 39593 ft 441 kts 251°
2026-04-21 02:58 51.22386 145.36196 39590 ft 441 kts 251°
2026-04-21 02:58 51.20486 145.26889 39590 ft 441 kts 251°
2026-04-21 02:59 51.18581 145.17591 39588 ft 441 kts 251°
2026-04-21 02:59 51.16668 145.08298 39582 ft 441 kts 251°
2026-04-21 03:00 51.15074 145.00585 39579 ft 441 kts 250°
2026-04-21 03:00 51.13148 144.91318 39577 ft 441 kts 250°
2026-04-21 03:01 51.11216 144.82058 39572 ft 441 kts 250°
2026-04-21 03:01 51.09277 144.72809 39570 ft 440 kts 250°
2026-04-21 03:02 51.07333 144.63570 39575 ft 441 kts 250°
2026-04-21 03:02 51.05380 144.54336 39574 ft 441 kts 250°
2026-04-21 03:03 51.03421 144.45116 39563 ft 441 kts 249°
2026-04-21 03:03 51.01453 144.35886 39562 ft 441 kts 248°
2026-04-21 03:04 50.99487 144.26638 39564 ft 443 kts 249°
2026-04-21 03:04 50.97548 144.17425 39562 ft 444 kts 249°
2026-04-21 03:05 50.95583 144.08134 39539 ft 445 kts 248°
2026-04-21 03:05 50.93604 143.98835 39532 ft 445 kts 248°
2026-04-21 03:06 50.91615 143.89536 39521 ft 446 kts 248°
2026-04-21 03:06 50.89616 143.80224 39530 ft 447 kts 248°
2026-04-21 03:07 50.87611 143.70906 39525 ft 447 kts 248°
2026-04-21 03:07 50.85594 143.61580 39527 ft 448 kts 248°
2026-04-21 03:08 50.83568 143.52252 39524 ft 449 kts 248°
2026-04-21 03:08 50.81533 143.42923 39521 ft 449 kts 248°
2026-04-21 03:09 50.79471 143.33616 39511 ft 448 kts 247°
2026-04-21 03:09 50.77405 143.24321 39510 ft 448 kts 247°
2026-04-21 03:10 50.75327 143.15039 39507 ft 448 kts 247°
2026-04-21 03:10 50.73249 143.05754 39489 ft 449 kts 247°
2026-04-21 03:11 50.71158 142.96469 39502 ft 449 kts 247°
2026-04-21 03:11 50.69058 142.87182 39498 ft 450 kts 247°
2026-04-21 03:12 50.66956 142.77899 39502 ft 450 kts 248°
2026-04-21 03:12 50.65254 142.68353 39497 ft 454 kts 252°
2026-04-21 03:13 50.63701 142.58710 39510 ft 455 kts 252°
2026-04-21 03:13 50.62115 142.49046 39510 ft 456 kts 251°
2026-04-21 03:14 50.60500 142.39373 39505 ft 458 kts 251°
2026-04-21 03:14 50.58864 142.29685 39510 ft 458 kts 251°
2026-04-21 03:15 50.57208 142.20005 39494 ft 458 kts 251°
2026-04-21 03:15 50.55543 142.10326 39494 ft 459 kts 251°
2026-04-21 03:16 50.53873 142.00657 39492 ft 458 kts 251°
2026-04-21 03:16 50.52200 141.91005 39495 ft 457 kts 251°
2026-04-21 03:17 50.50518 141.81390 39496 ft 456 kts 251°
2026-04-21 03:17 50.48835 141.71797 39489 ft 456 kts 251°
2026-04-21 03:18 50.47140 141.62180 39472 ft 458 kts 251°
2026-04-21 03:18 50.45435 141.52542 39483 ft 459 kts 250°
2026-04-21 03:19 50.43713 141.42891 39480 ft 460 kts 250°
2026-04-21 03:19 50.41992 141.33300 39480 ft 460 kts 250°
2026-04-21 03:20 50.40253 141.23632 39484 ft 461 kts 250°
2026-04-21 03:20 50.38506 141.13968 39487 ft 461 kts 250°
2026-04-21 03:21 50.36749 141.04310 39471 ft 461 kts 250°
2026-04-21 03:21 50.34987 140.94668 39472 ft 460 kts 250°
2026-04-21 03:22 50.33218 140.85040 39472 ft 460 kts 250°
2026-04-21 03:22 50.31446 140.75425 39469 ft 460 kts 250°
2026-04-21 03:23 50.29652 140.65794 39481 ft 462 kts 250°
2026-04-21 03:23 50.27856 140.56111 39466 ft 464 kts 250°
2026-04-21 03:24 50.26048 140.46432 39471 ft 464 kts 250°
2026-04-21 03:24 50.24233 140.36831 39459 ft 463 kts 250°
2026-04-21 03:25 50.22407 140.27196 39470 ft 462 kts 250°
2026-04-21 03:25 50.20583 140.17561 39469 ft 463 kts 250°
2026-04-21 03:26 50.18746 140.07922 39475 ft 463 kts 250°
2026-04-21 03:26 50.16896 139.98298 39461 ft 463 kts 250°
2026-04-21 03:27 50.15037 139.88685 39475 ft 462 kts 249°
2026-04-21 03:27 50.13172 139.79104 39457 ft 462 kts 249°
2026-04-21 03:28 50.11301 139.69518 39477 ft 463 kts 249°
2026-04-21 03:28 50.09426 139.59909 39453 ft 464 kts 249°
2026-04-21 03:29 50.07536 139.50296 39463 ft 465 kts 249°
2026-04-21 03:29 50.05635 139.40698 39460 ft 463 kts 249°
2026-04-21 03:30 50.03739 139.31145 39450 ft 461 kts 249°
2026-04-21 03:30 50.01830 139.21598 39459 ft 463 kts 249°
2026-04-21 03:31 49.99896 139.11988 39454 ft 467 kts 248°
2026-04-21 03:31 49.97955 139.02360 39467 ft 467 kts 248°
2026-04-21 03:32 49.96004 138.92727 39484 ft 467 kts 248°
2026-04-21 03:32 49.94038 138.83083 39457 ft 469 kts 248°
2026-04-21 03:33 49.92071 138.73456 39438 ft 467 kts 248°
2026-04-21 03:33 49.90099 138.63899 39433 ft 465 kts 248°
2026-04-21 03:34 49.89110 138.59110 38985 ft 468 kts 248°
2026-04-21 03:34 49.88119 138.54322 38531 ft 463 kts 247°
2026-04-21 03:34 49.87131 138.49605 38074 ft 457 kts 246°
2026-04-21 03:34 49.86151 138.44954 37630 ft 451 kts 246°
2026-04-21 03:35 49.85179 138.40364 37173 ft 445 kts 245°
2026-04-21 03:35 49.84229 138.35889 36747 ft 441 kts 244°
2026-04-21 03:35 49.83276 138.31407 36314 ft 436 kts 244°
2026-04-21 03:35 49.82317 138.26911 35861 ft 432 kts 243°
2026-04-21 03:36 49.81389 138.22579 35430 ft 428 kts 243°
2026-04-21 03:36 49.80459 138.18235 34997 ft 423 kts 242°
2026-04-21 03:36 49.79537 138.13933 34552 ft 419 kts 241°
2026-04-21 03:36 49.78622 138.09670 34103 ft 416 kts 241°
2026-04-21 03:37 49.77713 138.05444 33671 ft 412 kts 240°
2026-04-21 03:37 49.76810 138.01261 33218 ft 408 kts 240°
2026-04-21 03:37 49.75914 137.97117 32789 ft 404 kts 240°
2026-04-21 03:37 49.75024 137.93013 32365 ft 401 kts 240°
2026-04-21 03:38 49.74140 137.88944 31951 ft 398 kts 240°
2026-04-21 03:38 49.73261 137.84905 31517 ft 395 kts 240°
2026-04-21 03:38 49.72387 137.80899 31107 ft 392 kts 240°
2026-04-21 03:38 49.71519 137.76925 30711 ft 389 kts 240°
2026-04-21 03:39 49.70653 137.72971 30299 ft 387 kts 240°
2026-04-21 03:39 49.69792 137.69040 29904 ft 385 kts 240°
2026-04-21 03:39 49.68936 137.65136 29507 ft 383 kts 240°
2026-04-21 03:39 49.68082 137.61258 29117 ft 381 kts 240°
2026-04-21 03:40 49.67229 137.57399 28709 ft 379 kts 240°
2026-04-21 03:40 49.66379 137.53569 28311 ft 376 kts 240°
2026-04-21 03:40 49.65532 137.49762 27929 ft 374 kts 240°
2026-04-21 03:40 49.64690 137.45977 27528 ft 372 kts 240°
2026-04-21 03:41 49.63849 137.42210 27140 ft 370 kts 240°
2026-04-21 03:41 49.63011 137.38463 26755 ft 369 kts 240°
2026-04-21 03:41 49.62177 137.34735 26369 ft 367 kts 241°
2026-04-21 03:41 49.61343 137.31024 25989 ft 365 kts 241°
2026-04-21 03:42 49.60513 137.27332 25600 ft 364 kts 241°
2026-04-21 03:42 49.59686 137.23654 25224 ft 362 kts 241°
2026-04-21 03:42 49.58863 137.20001 24850 ft 360 kts 241°
2026-04-21 03:42 49.58042 137.16367 24488 ft 358 kts 242°
2026-04-21 03:43 49.57225 137.12749 24115 ft 357 kts 242°
2026-04-21 03:43 49.56410 137.09147 23745 ft 356 kts 242°
2026-04-21 03:43 49.55596 137.05560 23373 ft 354 kts 242°
2026-04-21 03:43 49.54785 137.01994 23011 ft 352 kts 242°
2026-04-21 03:44 49.53979 136.98451 22646 ft 350 kts 242°
2026-04-21 03:44 49.53176 136.94930 22286 ft 348 kts 242°
2026-04-21 03:44 49.52377 136.91431 21920 ft 346 kts 242°
2026-04-21 03:44 49.51582 136.87953 21557 ft 344 kts 243°
2026-04-21 03:45 49.50790 136.84495 21197 ft 341 kts 243°
2026-04-21 03:45 49.50012 136.81108 20841 ft 339 kts 243°
2026-04-21 03:45 49.49229 136.77700 20486 ft 337 kts 243°
2026-04-21 03:45 49.48450 136.74316 20109 ft 334 kts 243°
2026-04-21 03:46 49.47677 136.70959 19774 ft 332 kts 243°
2026-04-21 03:46 49.46910 136.67629 19420 ft 329 kts 243°
2026-04-21 03:46 49.46146 136.64328 19053 ft 326 kts 243°
2026-04-21 03:46 49.45386 136.61047 18719 ft 326 kts 243°
2026-04-21 03:47 49.44515 136.57867 18360 ft 320 kts 233°
2026-04-21 03:47 49.43283 136.55019 18003 ft 321 kts 223°
2026-04-21 03:47 49.41772 136.52496 17635 ft 321 kts 218°
2026-04-21 03:47 49.40195 136.50069 17265 ft 321 kts 218°
2026-04-21 03:48 49.38617 136.47667 16881 ft 318 kts 218°
2026-04-21 03:48 49.37052 136.45282 16499 ft 316 kts 218°
2026-04-21 03:48 49.36004 136.43680 16249 ft 314 kts 219°
2026-04-21 03:48 49.33971 136.40557 15756 ft 311 kts 219°
2026-04-21 03:49 49.32941 136.38973 15507 ft 309 kts 219°
2026-04-21 03:49 49.31429 136.36645 15133 ft 307 kts 220°
2026-04-21 03:49 49.29930 136.34335 14766 ft 304 kts 220°
2026-04-21 03:49 49.28451 136.32047 14405 ft 300 kts 221°
2026-04-21 03:50 49.26991 136.29792 14043 ft 298 kts 221°
2026-04-21 03:50 49.25532 136.27559 13702 ft 296 kts 221°
2026-04-21 03:50 49.24087 136.25331 13342 ft 294 kts 221°
2026-04-21 03:50 49.22650 136.23126 12990 ft 292 kts 222°
2026-04-21 03:51 49.21229 136.20944 12644 ft 288 kts 223°
2026-04-21 03:51 49.19820 136.18767 12289 ft 289 kts 223°
2026-04-21 03:51 49.18410 136.16605 11948 ft 286 kts 223°
2026-04-21 03:51 49.17021 136.14469 11616 ft 281 kts 223°
2026-04-21 03:52 49.15638 136.12362 11286 ft 278 kts 223°
2026-04-21 03:52 49.14296 136.10305 10956 ft 276 kts 224°
2026-04-21 03:52 49.12933 136.08211 10626 ft 272 kts 225°
2026-04-21 03:52 49.11623 136.06202 10320 ft 269 kts 225°
2026-04-21 03:53 49.10294 136.04170 10022 ft 271 kts 224°
2026-04-21 03:53 49.08948 136.02118 9695 ft 278 kts 225°
2026-04-21 03:53 49.07579 136.00027 9539 ft 278 kts 225°
2026-04-21 03:53 49.06233 135.97979 9316 ft 271 kts 226°
2026-04-21 03:54 49.04915 135.95965 9003 ft 264 kts 226°
2026-04-21 03:54 49.03624 135.94003 8705 ft 260 kts 227°
2026-04-21 03:54 49.02357 135.92071 8420 ft 255 kts 227°
2026-04-21 03:54 49.01101 135.90162 8131 ft 255 kts 226°
2026-04-21 03:55 48.99836 135.88251 7859 ft 259 kts 227°
2026-04-21 03:55 48.98551 135.86298 7568 ft 261 kts 227°
2026-04-21 03:55 48.97285 135.84346 7314 ft 255 kts 228°
2026-04-21 03:55 48.96055 135.82391 7111 ft 256 kts 229°
2026-04-21 03:56 48.94822 135.80431 6937 ft 255 kts 228°
2026-04-21 03:56 48.93606 135.78493 6705 ft 249 kts 228°
2026-04-21 03:56 48.92428 135.76620 6490 ft 243 kts 228°
2026-04-21 03:56 48.91288 135.74819 6352 ft 234 kts 228°
2026-04-21 03:57 48.90163 135.73045 6250 ft 232 kts 228°
2026-04-21 03:57 48.89050 135.71302 6146 ft 227 kts 227°
2026-04-21 03:57 48.87947 135.69578 6038 ft 227 kts 227°
2026-04-21 03:57 48.86851 135.67875 5919 ft 226 kts 229°
2026-04-21 03:58 48.85772 135.66150 5831 ft 227 kts 230°
2026-04-21 03:58 48.84690 135.64389 5715 ft 228 kts 227°
2026-04-21 03:58 48.83579 135.62686 5660 ft 225 kts 228°
2026-04-21 03:58 48.82480 135.60998 5541 ft 225 kts 228°
2026-04-21 03:59 48.81382 135.59309 5415 ft 224 kts 228°
2026-04-21 03:59 48.80293 135.57616 5312 ft 225 kts 228°
2026-04-21 03:59 48.79215 135.55940 5200 ft 216 kts 228°
2026-04-21 04:00 48.77248 135.52866 4983 ft 189 kts 229°
2026-04-21 04:00 48.76331 135.51445 5038 ft 184 kts 230°
2026-04-21 04:00 48.75388 135.50042 5101 ft 194 kts 226°
2026-04-21 04:00 48.74406 135.48695 5013 ft 192 kts 225°
2026-04-21 04:01 48.73405 135.47324 4648 ft 193 kts 225°
2026-04-21 04:01 48.72431 135.45994 4331 ft 185 kts 226°
2026-04-21 04:01 48.71507 135.44738 4071 ft 174 kts 225°
2026-04-21 04:01 48.70604 135.43495 3777 ft 176 kts 225°
2026-04-21 04:02 48.69720 135.42279 3488 ft 167 kts 226°
2026-04-21 04:02 48.68861 135.41089 3253 ft 167 kts 225°
2026-04-21 04:02 48.68022 135.39934 3086 ft 159 kts 225°
2026-04-21 04:02 48.67230 135.38837 2974 ft 155 kts 226°
2026-04-21 04:03 48.66410 135.37708 2831 ft 158 kts 225°
2026-04-21 04:03 48.65601 135.36594 2703 ft 157 kts 225°
2026-04-21 04:03 48.64796 135.35489 2567 ft 155 kts 225°
2026-04-21 04:03 48.64000 135.34395 2438 ft 154 kts 225°
2026-04-21 04:04 48.63207 135.33309 2321 ft 154 kts 225°
2026-04-21 04:04 48.62419 135.32228 2162 ft 152 kts 225°
2026-04-21 04:04 48.61665 135.31200 2078 ft 144 kts 226°
2026-04-21 04:04 48.60925 135.30186 2057 ft 143 kts 226°
2026-04-21 04:05 48.60189 135.29155 1992 ft 145 kts 226°
2026-04-21 04:05 48.59436 135.28148 1890 ft 144 kts 224°
2026-04-21 04:05 48.58661 135.27156 1700 ft 147 kts 224°
2026-04-21 04:05 48.57924 135.26135 1471 ft 140 kts 227°
2026-04-21 04:06 48.57208 135.25162 1237 ft 137 kts 224°
2026-04-21 04:06 48.56494 135.24204 983 ft 138 kts 227°
2026-04-21 04:06 48.55795 135.23201 729 ft 138 kts 225°
2026-04-21 04:06 48.55081 135.22236 512 ft 135 kts 226°
2026-04-21 04:07 48.54394 135.21282 357 ft 132 kts 225°
2026-04-21 04:07 48.53736 135.20368 251 ft 122 kts 223°
2026-04-21 04:07 48.53198 135.19631 251 ft 81 kts 223°
2026-04-21 04:07 48.52838 135.19138 249 ft 69 kts 223°
2026-04-21 04:08 48.52509 135.18683 250 ft 60 kts 221°
2026-04-21 04:08 48.52219 135.18294 247 ft 51 kts 222°
2026-04-21 04:08 48.52122 135.18053 246 ft 16 kts 292°
2026-04-21 04:08 48.52198 135.17934 250 ft 16 kts 313°
2026-04-21 04:09 48.52272 135.17810 251 ft 16 kts 313°
2026-04-21 04:09 48.52347 135.17688 251 ft 16 kts 313°
2026-04-21 04:09 48.52422 135.17565 250 ft 16 kts 313°
2026-04-21 04:09 48.52497 135.17442 250 ft 16 kts 312°
2026-04-21 04:10 48.52563 135.17436 249 ft 11 kts 43°
2026-04-21 04:10 48.52627 135.17523 249 ft 13 kts 41°
2026-04-21 04:10 48.52705 135.17556 248 ft 13 kts 332°
2026-04-21 04:10 48.52783 135.17541 248 ft 12 kts 32°
2026-04-21 04:11 48.52829 135.17605 247 ft 0 kts 43°
2026-04-21 04:13 48.52824 135.17595 247 ft 16 kts 72°
2026-04-21 04:13 48.52763 135.17639 247 ft 7 kts 156°
2026-04-21 04:14 48.52774 135.17633 247 ft 8 kts 177°
2026-04-21 04:14 48.52781 135.17635 247 ft 1 kts 216°
2026-04-21 04:15 48.52752 135.17640 247 ft 0 kts 312°
2026-04-21 04:19 48.52752 135.17639 248 ft 0 kts 312°